CYPH

Inukjuak Airport

ICAO Code CYPH
IATA Code YPH
Name Inukjuak Airport
Location Inukjuak, Quebec, CA
Elevation 86 Feet / 26.2 Meters
Latitude 58.47194444
Longitude -78.07694444
METAR CYPH 260400Z AUTO 31006KT 9SM OVC014 03/M00 A3026 RMK SLP249
Extra information Display Charts and CFS
Display NOTAMS
Runway Length Width Surface Elevation
07 3520 ft 100 ft GRAVEL 78 ft
25 3520 ft 100 ft GRAVEL 77 ft